Location: Makanda
(37.6176°N, 89.2090°W)
Time: 04:12:47
(UTC+00:00)

Cosmos 2297 Rocket - Pass Details

Date: 23 September 2019
Orbit: 841 x 842 km, 71.0° (Epoch: 17 October)

Event Time Altitude Azimuth Distance (km) Brightness Sun altitude
Rises 00:56:23 0° 197° (SSW) 3,381 5.4 -13.1°
Reaches altitude 10° 00:58:49 10° 196° (SSW) 2,451 4.7 -13.6°
Maximum altitude 01:04:27 80° 111° (ESE) 858 2.1 -14.7°
Drops below altitude 10° 01:10:06 10° 24° (NNE) 2,466 4.5 -15.8°
Sets 01:12:33 0° 24° (NNE) 3,404 5.2 -16.3°
